Regional Weather Roundup
Issued by NWS Cleveland, OH

Home | Current Version | Previous Version | Text Only | Print | Product List | Glossary Off
Versions: 1 2 3 4 5 6 7 8 9 10 11 12 13 14 15 16 17 18 19 20 21 22 23 24 25 26 27 28 29 30 31 32 33 34 35 36 37 38 39 40 41 42 43 44 45 46 47 48 49 50

000
ASUS41 KCLE 212300
RWRCLE
OHIO REGIONAL WEATHER ROUNDUP
NATIONAL WEATHER SERVICE WILMINGTON, OH
700 PM EDT TUE OCT 21 2014

NOTE: "FAIR" INDICATES FEW OR NO CLOUDS BELOW 12,000 FEET WITH NO
SIGNIFICANT WEATHER AND/OR OBSTRUCTIONS TO VISIBILITY.

OHZ001>008-015>018-024>027-034-035-043-044-220000-
   NORTHWEST OHIO

CITY           SKY/WX    TMP DP  RH WIND       PRES   REMARKS
DEFIANCE       CLOUDY    48  37  65 NE12      30.16R
FINDLAY        CLOUDY    47  38  71 N10       30.12R
TOLEDO EXPRESS CLOUDY    45  37  73 N10       30.14R
TOLEDO METCALF CLOUDY    47  37  68 N15       30.14R
LIMA           CLOUDY    47  38  71 N13G21    30.13R
$$

OHZ009>014-019>023-028>033-038-089-220000-
   NORTHEAST OHIO

CITY           SKY/WX    TMP DP  RH WIND       PRES   REMARKS
CLE-HOPKINS    LGT RAIN  47  44  90 NW14G23   30.07R
CLE-LAKEFRONT  LGT RAIN  49  45  86 N22G30    30.03R
CUY CO. ARPT   LGT RAIN  50  48  93 N14G21    30.03R
LORAIN-ELYRIA  LGT RAIN  45  43  93 N13G24    30.07R FOG
ASHTABULA      LGT RAIN  48  46  93 N10       30.00R FOG
AKRON-CANTON   LGT RAIN  47  43  86 NW9       30.01S FOG
WOOSTER        LGT RAIN  46  43  87 NW13      30.05R
MANSFIELD      CLOUDY    44  41  89 NW15      30.07R
YOUNGSTOWN     LGT RAIN  47  45  93 NW8       29.98R
$$

OHZ042-051>053-060>062-070>072-077>081-220000-
  SOUTHWEST OHIO

CITY           SKY/WX    TMP DP  RH WIND       PRES   REMARKS
CINC-COVINGTON CLOUDY    53  40  61 N7        30.11R
CINC-LUNKEN    CLOUDY    52  42  69 N10       30.12R
HAMILTON       LGT RAIN  51  44  77 N13G21    30.13R
DAYTON         NOT AVBL
WRIGHT-PAT AFB NOT AVBL
DAYTON GENERAL CLOUDY    49  46  90 NW6       30.10S
WILMINGTON     CLOUDY    48  43  82 N9        30.10R
$$

OHZ036-037-039>041-045>050-054>059-063>069-073>076-082>088-220000-
  CENTRAL AND SOUTHEAST OHIO

CITY           SKY/WX    TMP DP  RH WIND       PRES   REMARKS
COLUMBUS       CLOUDY    48  38  68 N12       30.08R
OSU AIRPORT    CLOUDY    47  39  74 NW10      30.09R
BOLTON FIELD   NOT AVBL
RICKENBACK AFB NOT AVBL
NEWARK         CLOUDY    48  40  73 NW12      30.07R
MARION         CLOUDY    46  39  76 N13       30.10R
LANCASTER      CLOUDY    47  41  80 NW7       30.08R
ZANESVILLE     CLOUDY    47  40  76 NW12      30.04R
NEW PHILLY     LGT RAIN  48  43  82 NW9       30.04R
$$



USA.gov is the U.S. government's official web portal to all federal, state and local government web resources and services.